Location: Arcueil
(48.7999°N, 2.3326°E)
Time: 18:21:54
(UTC+00:00)

Cosmos 2263 Rocket - Pass Details

Date: 03 February 2023
Orbit: 825 x 847 km, 71.0° (Epoch: 26 March)

Event Time Altitude Azimuth Distance (km) Brightness Sun altitude
Rises 17:09:18 0° 329° (NNW) 3,375 5.5 -3.6°
Reaches altitude 10° 17:11:46 10° 327° (NNW) 2,437 4.8 -4.0°
Maximum altitude 17:17:17 66° 247° (WSW) 900 2.7 -4.8°
Drops below altitude 10° 17:22:46 10° 166° (SSE) 2,420 4.7 -5.7°
Sets 17:25:12 0° 163° (SSE) 3,351 5.3 -6.0°
